Time,TemperatureF,DewpointF,PressureIn,WindDirection,WindDirectionDegrees,WindSpeedMPH,WindSpeedGustMPH,Humidity,HourlyPrecipIn,Conditions,Clouds,dailyrainin,SolarRadiationWatts/m^2,SoftwareType,DateUTC
2013-01-25 00:02:00,57.0,-99.9,-100.00,North,354,4.0,13.0,-999,0.00,,,0.27,0.000000,,2013-01-25 10:02:00,
2013-01-25 00:12:00,57.0,-99.9,-100.00,North,354,4.0,13.0,-999,0.00,,,0.27,0.000000,,2013-01-25 10:12:00,
2013-01-25 00:22:00,57.0,-99.9,-100.00,North,354,4.0,13.0,-999,0.00,,,0.27,0.000000,,2013-01-25 10:22:00,
2013-01-25 00:42:00,57.0,-99.9,-100.00,North,10,4.0,13.0,-999,0.00,,,0.27,0.000000,,2013-01-25 10:42:00,
2013-01-25 00:52:00,57.0,-99.9,-100.00,North,10,4.0,13.0,-999,0.00,,,0.27,0.000000,,2013-01-25 10:52:00,
2013-01-25 01:03:00,57.0,-99.9,-100.00,North,10,4.0,13.0,-999,0.00,,,0.27,0.000000,,2013-01-25 11:03:00,
2013-01-25 01:11:00,57.0,-99.9,-100.00,North,10,4.0,13.0,-999,0.00,,,0.27,0.000000,,2013-01-25 11:11:00,
2013-01-25 01:22:00,57.0,-99.9,-100.00,North,10,4.0,13.0,-999,0.00,,,0.27,0.000000,,2013-01-25 11:22:00,
2013-01-25 01:42:00,57.0,-99.9,-100.00,NNE,17,3.0,11.0,-999,0.00,,,0.27,0.000000,,2013-01-25 11:42:00,
2013-01-25 01:52:00,57.0,-99.9,-100.00,NNE,17,3.0,11.0,-999,0.00,,,0.27,0.000000,,2013-01-25 11:52:00,
2013-01-25 02:03:00,57.0,-99.9,-100.00,NNE,17,3.0,11.0,-999,0.00,,,0.27,0.000000,,2013-01-25 12:03:00,
2013-01-25 02:12:00,57.0,-99.9,-100.00,NNE,17,3.0,11.0,-999,0.00,,,0.27,0.000000,,2013-01-25 12:12:00,
2013-01-25 02:22:00,57.0,-99.9,-100.00,NNE,17,3.0,11.0,-999,0.00,,,0.27,0.000000,,2013-01-25 12:22:00,
2013-01-25 02:42:00,57.0,-99.9,-100.00,North,11,3.0,11.0,-999,0.01,,,0.28,0.000000,,2013-01-25 12:42:00,
2013-01-25 02:53:00,57.0,-99.9,-100.00,North,11,3.0,11.0,-999,0.01,,,0.28,0.000000,,2013-01-25 12:53:00,
2013-01-25 03:03:00,57.0,-99.9,-100.00,North,11,3.0,11.0,-999,0.01,,,0.28,0.000000,,2013-01-25 13:03:00,
2013-01-25 03:12:00,57.0,-99.9,-100.00,North,11,3.0,11.0,-999,0.01,,,0.28,0.000000,,2013-01-25 13:12:00,
2013-01-25 03:22:00,57.0,-99.9,-100.00,North,11,3.0,11.0,-999,0.01,,,0.28,0.000000,,2013-01-25 13:22:00,
2013-01-25 03:23:00,57.0,-99.9,-100.00,NE,54,3.0,12.0,-999,0.04,,,0.32,0.000000,,2013-01-25 13:23:00,
2013-01-25 03:43:00,57.0,-99.9,-100.00,NE,54,3.0,12.0,-999,0.04,,,0.32,0.000000,,2013-01-25 13:43:00,
2013-01-25 03:53:00,57.0,-99.9,-100.00,NE,54,3.0,12.0,-999,0.04,,,0.32,0.000000,,2013-01-25 13:53:00,
2013-01-25 04:03:00,57.0,-99.9,-100.00,NE,54,3.0,12.0,-999,0.04,,,0.32,0.000000,,2013-01-25 14:03:00,
2013-01-25 04:13:00,57.0,-99.9,-100.00,NE,54,3.0,12.0,-999,0.04,,,0.32,0.000000,,2013-01-25 14:13:00,
2013-01-25 04:23:00,57.0,-99.9,-100.00,NNE,27,4.0,13.0,-999,0.04,,,0.36,0.000000,,2013-01-25 14:23:00,
2013-01-25 04:42:00,57.0,-99.9,-100.00,NNE,27,4.0,13.0,-999,0.04,,,0.36,0.000000,,2013-01-25 14:42:00,
2013-01-25 04:53:00,57.0,-99.9,-100.00,NNE,27,4.0,13.0,-999,0.04,,,0.36,0.000000,,2013-01-25 14:53:00,
2013-01-25 05:03:00,57.0,-99.9,-100.00,NNE,27,4.0,13.0,-999,0.04,,,0.36,0.000000,,2013-01-25 15:03:00,
2013-01-25 05:13:00,57.0,-99.9,-100.00,NNE,27,4.0,13.0,-999,0.04,,,0.36,0.000000,,2013-01-25 15:13:00,
2013-01-25 05:23:00,57.0,-99.9,-100.00,NNE,26,3.0,13.0,-999,0.04,,,0.40,0.000000,,2013-01-25 15:23:00,
2013-01-25 05:43:00,57.0,-99.9,-100.00,NNE,26,3.0,13.0,-999,0.04,,,0.40,0.000000,,2013-01-25 15:43:00,
2013-01-25 05:53:00,57.0,-99.9,-100.00,NNE,26,3.0,13.0,-999,0.04,,,0.40,0.000000,,2013-01-25 15:53:00,
2013-01-25 06:04:00,57.0,-99.9,-100.00,NNE,26,3.0,13.0,-999,0.04,,,0.40,0.000000,,2013-01-25 16:04:00,
2013-01-25 06:12:00,57.0,-99.9,-100.00,NNE,26,3.0,13.0,-999,0.04,,,0.40,0.000000,,2013-01-25 16:12:00,
2013-01-25 06:23:00,57.0,-99.9,-100.00,NNE,21,3.0,14.0,-999,0.03,,,-99.99,0.000000,,2013-01-25 16:23:00,
2013-01-25 06:43:00,57.0,-99.9,-100.00,NNE,21,3.0,14.0,-999,0.03,,,-99.99,0.000000,,2013-01-25 16:43:00,
2013-01-25 06:53:00,57.0,-99.9,-100.00,NNE,21,3.0,14.0,-999,0.03,,,-99.99,0.000000,,2013-01-25 16:53:00,
2013-01-25 07:03:00,57.0,-99.9,-100.00,NNE,21,3.0,14.0,-999,0.03,,,-99.99,0.000000,,2013-01-25 17:03:00,
2013-01-25 07:12:00,57.0,-99.9,-100.00,NNE,21,3.0,14.0,-999,0.03,,,-99.99,0.000000,,2013-01-25 17:12:00,
2013-01-25 07:23:00,57.0,-99.9,-100.00,NNE,28,3.0,16.0,-999,0.04,,,0.42,0.000000,,2013-01-25 17:23:00,
2013-01-25 07:43:00,57.0,-99.9,-100.00,NNE,28,3.0,16.0,-999,0.04,,,0.42,0.000000,,2013-01-25 17:43:00,
2013-01-25 07:53:00,57.0,-99.9,-100.00,NNE,28,3.0,16.0,-999,0.04,,,0.42,0.000000,,2013-01-25 17:53:00,
2013-01-25 08:04:00,57.0,-99.9,-100.00,NNE,28,3.0,16.0,-999,0.04,,,0.42,0.000000,,2013-01-25 18:04:00,
2013-01-25 08:12:00,57.0,-99.9,-100.00,NNE,28,3.0,16.0,-999,0.04,,,0.42,0.000000,,2013-01-25 18:12:00,
2013-01-25 08:23:00,57.0,-99.9,-100.00,NNE,30,4.0,15.0,-999,0.04,,,0.42,30.000000,,2013-01-25 18:23:00,
2013-01-25 08:43:00,57.0,-99.9,-100.00,NNE,30,4.0,15.0,-999,0.04,,,0.42,30.000000,,2013-01-25 18:43:00,
2013-01-25 08:53:00,57.0,-99.9,-100.00,NNE,30,4.0,15.0,-999,0.04,,,0.42,30.000000,,2013-01-25 18:53:00,
2013-01-25 09:03:00,57.0,-99.9,-100.00,NNE,30,4.0,15.0,-999,0.04,,,0.42,30.000000,,2013-01-25 19:03:00,
2013-01-25 09:12:00,57.0,-99.9,-100.00,NNE,30,4.0,15.0,-999,0.04,,,0.42,30.000000,,2013-01-25 19:12:00,
2013-01-25 09:23:00,57.0,-99.9,-100.00,NE,36,4.0,16.0,-999,0.06,,,0.47,86.000000,,2013-01-25 19:23:00,
2013-01-25 09:43:00,57.0,-99.9,-100.00,NE,36,4.0,16.0,-999,0.06,,,0.47,86.000000,,2013-01-25 19:43:00,
2013-01-25 09:54:00,57.0,-99.9,-100.00,NE,36,4.0,16.0,-999,0.06,,,0.47,86.000000,,2013-01-25 19:54:00,
2013-01-25 10:03:00,57.0,-99.9,-100.00,NE,36,4.0,16.0,-999,0.06,,,0.47,86.000000,,2013-01-25 20:03:00,
2013-01-25 10:13:00,57.0,-99.9,-100.00,NE,36,4.0,16.0,-999,0.06,,,0.47,86.000000,,2013-01-25 20:13:00,
2013-01-25 10:23:00,58.0,-99.9,-100.00,East,79,4.0,15.0,-999,0.06,,,0.53,184.000000,,2013-01-25 20:23:00,
2013-01-25 10:43:00,58.0,-99.9,-100.00,East,79,4.0,15.0,-999,0.06,,,0.53,184.000000,,2013-01-25 20:43:00,
2013-01-25 10:53:00,58.0,-99.9,-100.00,East,79,4.0,15.0,-999,0.06,,,0.53,184.000000,,2013-01-25 20:53:00,
2013-01-25 11:02:00,58.0,-99.9,-100.00,East,79,4.0,15.0,-999,0.06,,,0.53,184.000000,,2013-01-25 21:02:00,
2013-01-25 11:12:00,58.0,-99.9,-100.00,East,79,4.0,15.0,-999,0.06,,,0.53,184.000000,,2013-01-25 21:12:00,
2013-01-25 11:23:00,58.0,-99.9,-100.00,ENE,77,4.0,15.0,-999,0.03,,,0.51,235.000000,,2013-01-25 21:23:00,
2013-01-25 11:43:00,58.0,-99.9,-100.00,ENE,77,4.0,15.0,-999,0.03,,,0.51,235.000000,,2013-01-25 21:43:00,
2013-01-25 11:52:00,58.0,-99.9,-100.00,ENE,77,4.0,15.0,-999,0.03,,,0.51,235.000000,,2013-01-25 21:52:00,
2013-01-25 12:03:00,58.0,-99.9,-100.00,ENE,77,4.0,15.0,-999,0.03,,,0.51,235.000000,,2013-01-25 22:03:00,
2013-01-25 12:12:00,58.0,-99.9,-100.00,ENE,77,4.0,15.0,-999,0.03,,,0.51,235.000000,,2013-01-25 22:12:00,
2013-01-25 12:42:00,58.0,-99.9,-100.00,NNE,20,4.0,15.0,-999,0.01,,,0.52,379.000000,,2013-01-25 22:42:00,
2013-01-25 12:53:00,58.0,-99.9,-100.00,NNE,20,4.0,15.0,-999,0.01,,,0.52,379.000000,,2013-01-25 22:53:00,
2013-01-25 13:03:00,58.0,-99.9,-100.00,NNE,20,4.0,15.0,-999,0.01,,,0.52,379.000000,,2013-01-25 23:03:00,
2013-01-25 13:12:00,58.0,-99.9,-100.00,NNE,20,4.0,15.0,-999,0.01,,,0.52,379.000000,,2013-01-25 23:12:00,
2013-01-25 13:22:00,58.0,-99.9,-100.00,NNE,20,4.0,15.0,-999,0.01,,,0.52,379.000000,,2013-01-25 23:22:00,
2013-01-25 13:42:00,59.0,58.0,-100.00,NE,38,4.0,12.0,98,0.00,,,0.51,421.000000,,2013-01-25 23:42:00,
2013-01-25 13:52:00,59.0,58.0,-100.00,NE,38,4.0,12.0,98,0.00,,,0.51,421.000000,,2013-01-25 23:52:00,
2013-01-25 14:01:00,59.0,58.0,-100.00,NE,38,4.0,12.0,98,0.00,,,0.51,421.000000,,2013-01-26 00:01:00,
2013-01-25 14:11:00,59.0,58.0,-100.00,NE,38,4.0,12.0,98,0.00,,,0.51,421.000000,,2013-01-26 00:11:00,
2013-01-25 14:21:00,59.0,58.0,-100.00,NE,38,4.0,12.0,98,0.00,,,0.51,421.000000,,2013-01-26 00:21:00,
2013-01-25 14:42:00,62.0,57.0,-100.00,NE,55,4.0,14.0,85,0.00,,,0.49,622.000000,,2013-01-26 00:42:00,
2013-01-25 14:53:00,62.0,57.0,-100.00,NE,55,4.0,14.0,85,0.00,,,0.49,622.000000,,2013-01-26 00:53:00,
2013-01-25 15:01:00,62.0,57.0,-100.00,NE,55,4.0,14.0,85,0.00,,,0.49,622.000000,,2013-01-26 01:01:00,
2013-01-25 15:11:00,62.0,57.0,-100.00,NE,55,4.0,14.0,85,0.00,,,0.49,622.000000,,2013-01-26 01:11:00,
2013-01-25 15:22:00,62.0,57.0,-100.00,NE,55,4.0,14.0,85,0.00,,,0.49,622.000000,,2013-01-26 01:22:00,
2013-01-25 15:42:00,64.0,58.0,-100.00,East,88,3.0,14.0,81,0.00,,,0.49,620.000000,,2013-01-26 01:42:00,
2013-01-25 15:52:00,64.0,58.0,-100.00,East,88,3.0,14.0,81,0.00,,,0.49,620.000000,,2013-01-26 01:52:00,
2013-01-25 16:01:00,64.0,58.0,-100.00,East,88,3.0,14.0,81,0.00,,,0.49,620.000000,,2013-01-26 02:01:00,
2013-01-25 16:11:00,64.0,58.0,-100.00,East,88,3.0,14.0,81,0.00,,,0.49,620.000000,,2013-01-26 02:11:00,
2013-01-25 16:21:00,64.0,58.0,-100.00,East,88,3.0,14.0,81,0.00,,,0.49,620.000000,,2013-01-26 02:21:00,
2013-01-25 16:42:00,64.0,57.0,-100.00,East,92,3.0,13.0,78,0.00,,,0.49,530.000000,,2013-01-26 02:42:00,
2013-01-25 16:52:00,64.0,57.0,-100.00,East,92,3.0,13.0,78,0.00,,,0.49,530.000000,,2013-01-26 02:52:00,
2013-01-25 17:01:00,64.0,57.0,-100.00,East,92,3.0,13.0,78,0.00,,,0.49,530.000000,,2013-01-26 03:01:00,
2013-01-25 17:11:00,64.0,57.0,-100.00,East,92,3.0,13.0,78,0.00,,,0.49,530.000000,,2013-01-26 03:11:00,
2013-01-25 17:21:00,64.0,57.0,-100.00,East,92,3.0,13.0,78,0.00,,,0.49,530.000000,,2013-01-26 03:21:00,
2013-01-25 17:43:00,63.0,55.0,-100.00,NE,34,3.0,13.0,76,0.00,,,0.49,351.000000,,2013-01-26 03:43:00,
2013-01-25 17:52:00,63.0,55.0,-100.00,NE,34,3.0,13.0,76,0.00,,,0.49,351.000000,,2013-01-26 03:52:00,
2013-01-25 18:01:00,63.0,55.0,-100.00,NE,34,3.0,13.0,76,0.00,,,0.49,351.000000,,2013-01-26 04:01:00,
2013-01-25 18:12:00,63.0,55.0,-100.00,NE,34,3.0,13.0,76,0.00,,,0.49,351.000000,,2013-01-26 04:12:00,
2013-01-25 18:21:00,63.0,55.0,-100.00,NE,34,3.0,13.0,76,0.00,,,0.49,351.000000,,2013-01-26 04:21:00,
2013-01-25 18:42:00,61.0,59.0,-100.00,NE,48,3.0,11.0,93,0.00,,,-99.99,135.000000,,2013-01-26 04:42:00,
2013-01-25 18:52:00,61.0,59.0,-100.00,NE,48,3.0,11.0,93,0.00,,,-99.99,135.000000,,2013-01-26 04:52:00,
2013-01-25 19:03:00,61.0,59.0,-100.00,NE,48,3.0,11.0,93,0.00,,,-99.99,135.000000,,2013-01-26 05:03:00,
2013-01-25 19:12:00,61.0,59.0,-100.00,NE,48,3.0,11.0,93,0.00,,,-99.99,135.000000,,2013-01-26 05:12:00,
2013-01-25 19:22:00,61.0,59.0,-100.00,NE,48,3.0,11.0,93,0.00,,,-99.99,135.000000,,2013-01-26 05:22:00,
2013-01-25 19:42:00,57.0,-99.9,-100.00,NNE,16,2.0,10.0,-999,0.00,,,0.45,2.000000,,2013-01-26 05:42:00,
2013-01-25 19:53:00,57.0,-99.9,-100.00,NNE,16,2.0,10.0,-999,0.00,,,0.45,2.000000,,2013-01-26 05:53:00,
2013-01-25 20:03:00,57.0,-99.9,-100.00,NNE,16,2.0,10.0,-999,0.00,,,0.45,2.000000,,2013-01-26 06:03:00,
2013-01-25 20:12:00,57.0,-99.9,-100.00,NNE,16,2.0,10.0,-999,0.00,,,0.45,2.000000,,2013-01-26 06:12:00,
2013-01-25 20:22:00,57.0,-99.9,-100.00,NNE,16,2.0,10.0,-999,0.00,,,0.45,2.000000,,2013-01-26 06:22:00,
2013-01-25 20:42:00,57.0,-99.9,-100.00,North,4,3.0,10.0,-999,0.00,,,0.41,0.000000,,2013-01-26 06:42:00,
2013-01-25 20:52:00,57.0,-99.9,-100.00,North,4,3.0,10.0,-999,0.00,,,0.41,0.000000,,2013-01-26 06:52:00,
2013-01-25 21:02:00,57.0,-99.9,-100.00,North,4,3.0,10.0,-999,0.00,,,0.41,0.000000,,2013-01-26 07:02:00,
2013-01-25 21:12:00,57.0,-99.9,-100.00,North,4,3.0,10.0,-999,0.00,,,0.41,0.000000,,2013-01-26 07:12:00,
2013-01-25 21:22:00,57.0,-99.9,-100.00,North,4,3.0,10.0,-999,0.00,,,0.41,0.000000,,2013-01-26 07:22:00,
2013-01-25 21:42:00,56.0,-99.9,-100.00,North,357,3.0,12.0,-999,0.00,,,0.40,0.000000,,2013-01-26 07:42:00,
2013-01-25 21:52:00,56.0,-99.9,-100.00,North,357,3.0,12.0,-999,0.00,,,0.40,0.000000,,2013-01-26 07:52:00,
2013-01-25 22:02:00,56.0,-99.9,-100.00,North,357,3.0,12.0,-999,0.00,,,0.40,0.000000,,2013-01-26 08:02:00,
2013-01-25 22:11:00,56.0,-99.9,-100.00,North,357,3.0,12.0,-999,0.00,,,0.40,0.000000,,2013-01-26 08:11:00,
2013-01-25 22:22:00,56.0,-99.9,-100.00,North,357,3.0,12.0,-999,0.00,,,0.40,0.000000,,2013-01-26 08:22:00,
2013-01-25 22:42:00,55.0,-99.9,-100.00,North,1,4.0,14.0,-999,0.00,,,0.40,0.000000,,2013-01-26 08:42:00,
2013-01-25 22:54:00,55.0,-99.9,-100.00,North,1,4.0,14.0,-999,0.00,,,0.40,0.000000,,2013-01-26 08:54:00,
2013-01-25 23:02:00,55.0,-99.9,-100.00,North,1,4.0,14.0,-999,0.00,,,0.40,0.000000,,2013-01-26 09:02:00,
2013-01-25 23:11:00,55.0,-99.9,-100.00,North,1,4.0,14.0,-999,0.00,,,0.40,0.000000,,2013-01-26 09:11:00,
2013-01-25 23:22:00,55.0,-99.9,-100.00,North,1,4.0,14.0,-999,0.00,,,0.40,0.000000,,2013-01-26 09:22:00,
2013-01-25 23:42:00,54.0,-99.9,-100.00,North,355,3.0,9.0,-999,0.00,,,0.40,0.000000,,2013-01-26 09:42:00,
2013-01-25 23:52:00,54.0,-99.9,-100.00,North,355,3.0,9.0,-999,0.00,,,0.40,0.000000,,2013-01-26 09:52:00,